"Pseudo-MPEC" for C1E1GD2

Created 2019 Nov 11 23:07:05 UT using Find_Orb

Click here for an explanation of pseudo-MPECs

 
 Astrometry: 
     C1E1GD2  C2019 11 04.50479 08 26 28.47 +05 05 53.5    ~B4Cq 21.1 GVNEOCPG96
     C1E1GD2  C2019 11 04.51116 08 26 29.22 +05 05 52.7    ~B4Cq 20.8 GVNEOCPG96
     C1E1GD2  C2019 11 04.51752 08 26 29.96 +05 05 51.5    ~B4Cq 20.9 GVNEOCPG96
     C1E1GD2  C2019 11 04.52383 08 26 30.69 +05 05 50.7    ~B4Cq 21.1 GVNEOCPG96
     C1E1GD2  C2019 11 05.50864 08 28 26.75 +05 03 23.5    ~B5Cq 20.8 GVNEOCPG96
     C1E1GD2  C2019 11 05.51642 08 28 27.63 +05 03 22.4    ~B5Cq 21.2 GVNEOCPG96
     C1E1GD2  C2019 11 05.52044 08 28 28.09 +05 03 22.2    ~B5Cq 21.1 GVNEOCPG96
     C1E1GD2  C2019 11 05I0(,*_AstrometrymNs4redacted;E3*f;BclickS?Qp+,W*KR=HF52
     C1E1GD2  C2019 11 05D^6mnrTRhere2!+5Lssl4;y-Fo8RvWY:%for#RpKBYSTZ3:I93B,F52
     C1E1GD2  C2019 11 05!7_.]Uj5wGnk'LCQwCs0P(jvmWc5=d#Lc2explanationL-G#/pHF52

Station data:
(F52) Pan-STARRS 2, Haleakala  (N20.707384 W156.255910)  US/Hawaii. 1.8-m
   Ritchey-Chrétien + CCD.
(G96) Mt. Lemmon Survey  (N32.442754 W110.788720)  US/Arizona.  Observers T.
   A. Pruyne, B. M. Africano, E. J. Christensen, G. A. Farneth, D. C. Fuls,
   A. R. Gibbs, A. D. Grauer, H. Gröller, J. A. Johnson, R. A. Kowalski, S.
   M. Larson, G. J. Leonard, D. Rankin, R. L. Seaman, F. C. Shelly. 1.5-m
   reflector + 10K CCD.

Orbital elements:  C1E1GD2
   Perihelion 2019 Sep 23.964578 +/- 94.3 TT = 23:08:59 (JD 2458750.464578)
Epoch 2019 Nov  5.0 TT = JDT 2458792.5   Earth MOID: 0.4814   AutoNEOCP
M  10.75314596 +/- 54               (J2000 ecliptic)
n   0.25581153 +/- 0.24             Peri.  286.09106 +/- 100
a   2.45766468 +/- 1.54             Node   128.12660 +/- 7
e   0.4321048 +/- 0.238             Incl.   13.28966 +/- 4.2
P   3.85                   H 18.8   G  0.15   U 11.8  SR
q 1.39569594 +/- 0.359    Q 3.51963342 +/- 7.98
From 10 observations 2019 Nov. 4-5 (26.7 hr); mean residual 0".23
Residuals in arcseconds: 
191104 G96  .17-  .08-    191105 G96  .16-  .15+    191105 F52  .14+  .16-    
191104 G96  .03+  .10+    191105 G96  .25-  .17+    191105 F52  .46+  .45-    
191104 G96  .10+  .13-    191105 G96  .21-  .56+    
191104 G96  .11+  .04+    191105 F52  .05-  .19-    

Ephemerides (geocentric):
Date (UTC) HH   RA              Dec         delta   r     elong  mag " sig PA
---- -- -- --  -------------   -----------  ------ ------ -----  --- ---- ---
2019 11 11 23  08 40 23.162   +04 51 09.75  .96501 1.4708  97.6 21.2  325   6
2019 11 12 00  08 40 27.538   +04 51 06.39  .96483 1.4709  97.6 21.2  329   6
2019 11 12 01  08 40 31.911   +04 51 03.05  .96466 1.4710  97.6 21.2  333   6
2019 11 12 02  08 40 36.281   +04 50 59.73  .96448 1.4712  97.6 21.2  337   6
2019 11 12 03  08 40 40.648   +04 50 56.43  .96431 1.4713  97.7 21.2  342   6
2019 11 12 04  08 40 45.011   +04 50 53.15  .96413 1.4714  97.7 21.2  346   6
2019 11 12 05  08 40 49.371   +04 50 49.89  .96395 1.4715  97.7 21.2  350   6
2019 11 12 06  08 40 53.727   +04 50 46.65  .96378 1.4717  97.7 21.2  354   6
2019 11 12 07  08 40 58.080   +04 50 43.43  .96360 1.4718  97.8 21.2  358   6
2019 11 12 08  08 41 02.430   +04 50 40.23  .96343 1.4719  97.8 21.2  363   6
2019 11 12 09  08 41 06.777   +04 50 37.05  .96325 1.4720  97.8 21.2  367   6
2019 11 12 10  08 41 11.120   +04 50 33.89  .96308 1.4721  97.8 21.2  371   6
2019 11 12 11  08 41 15.460   +04 50 30.74  .96290 1.4723  97.9 21.2  376   6
2019 11 12 12  08 41 19.796   +04 50 27.62  .96273 1.4724  97.9 21.2  380   6
2019 11 12 13  08 41 24.129   +04 50 24.52  .96255 1.4725  97.9 21.2  384   6
2019 11 12 14  08 41 28.459   +04 50 21.44  .96238 1.4726  97.9 21.2  389   6
2019 11 12 15  08 41 32.786   +04 50 18.37  .96220 1.4728  98.0 21.2  393   6
2019 11 12 16  08 41 37.109   +04 50 15.33  .96203 1.4729  98.0 21.2  398   6
2019 11 12 17  08 41 41.428   +04 50 12.31  .96185 1.4730  98.0 21.2  402   6
2019 11 12 18  08 41 45.745   +04 50 09.31  .96167 1.4731  98.0 21.2  407   6
2019 11 12 19  08 41 50.058   +04 50 06.32  .96150 1.4733  98.0 21.2  411   6
2019 11 12 20  08 41 54.367   +04 50 03.36  .96132 1.4734  98.1 21.2  416   6
2019 11 12 21  08 41 58.674   +04 50 00.42  .96115 1.4735  98.1 21.2  421   6
2019 11 12 22  08 42 02.977   +04 49 57.50  .96097 1.4736  98.1 21.2  425   6
2019 11 12 23  08 42 07.276   +04 49 54.59  .96080 1.4737  98.1 21.2  430   6
2019 11 13 00  08 42 11.573   +04 49 51.71  .96062 1.4739  98.2 21.2  435   6
2019 11 13 01  08 42 15.865   +04 49 48.85  .96045 1.4740  98.2 21.2  439   6
2019 11 13 02  08 42 20.155   +04 49 46.01  .96027 1.4741  98.2 21.2  444   6
2019 11 13 03  08 42 24.441   +04 49 43.19  .96010 1.4742  98.2 21.2  449   6
2019 11 13 04  08 42 28.724   +04 49 40.39  .95992 1.4744  98.3 21.2  454   6
2019 11 13 05  08 42 33.003   +04 49 37.60  .95974 1.4745  98.3 21.2  458   6
2019 11 13 06  08 42 37.279   +04 49 34.84  .95957 1.4746  98.3 21.2  463   6
2019 11 13 07  08 42 41.551   +04 49 32.10  .95939 1.4747  98.3 21.2  468   6
2019 11 13 08  08 42 45.821   +04 49 29.38  .95922 1.4749  98.4 21.2  473   6
2019 11 13 09  08 42 50.087   +04 49 26.69  .95904 1.4750  98.4 21.2  478   6
2019 11 13 10  08 42 54.349   +04 49 24.01  .95887 1.4751  98.4 21.2  483   6
2019 11 13 11  08 42 58.608   +04 49 21.35  .95869 1.4752  98.4 21.2  488   6
2019 11 13 12  08 43 02.864   +04 49 18.71  .95852 1.4754  98.4 21.2  493   6
2019 11 13 13  08 43 07.116   +04 49 16.09  .95834 1.4755  98.5 21.2  498   6
2019 11 13 14  08 43 11.365   +04 49 13.50  .95816 1.4756  98.5 21.2  503   6
2019 11 13 15  08 43 15.610   +04 49 10.92  .95799 1.4757  98.5 21.2  508   6
2019 11 13 16  08 43 19.852   +04 49 08.36  .95781 1.4759  98.5 21.2  513   6
2019 11 13 17  08 43 24.091   +04 49 05.83  .95764 1.4760  98.6 21.2  518   6
2019 11 13 18  08 43 28.326   +04 49 03.31  .95746 1.4761  98.6 21.2  524   6
2019 11 13 19  08 43 32.558   +04 49 00.82  .95729 1.4762  98.6 21.2  529   6
2019 11 13 20  08 43 36.787   +04 48 58.35  .95711 1.4764  98.6 21.2  534   6
2019 11 13 21  08 43 41.012   +04 48 55.90  .95693 1.4765  98.7 21.2  539   6
2019 11 13 22  08 43 45.233   +04 48 53.46  .95676 1.4766  98.7 21.2  545   6